Weather History for Sidney, NE

Change the Weather History Date:

Monday, April 15, 2013

  Actual Average Record
Temperature  
Mean Temperature 28 °F 47 °F  
Max Temperature 33 °F 62 °F 85 °F (1985)
Min Temperature 23 °F 33 °F 12 °F (1951)
Degree Days  
Heating Degree Days 37 18  
Month to date heating degree days 396 303  
Since 1 July heating degree days 6003 5688  
Cooling Degree Days 0 0  
Month to date cooling degree days 0 0  
Year to date cooling degree days 0 0  
Moisture  
Dew Point 23 °F    
Average Humidity 78    
Maximum Humidity 92    
Minimum Humidity 63    
Precipitation  
Precipitation 0.14 in 0.07 in 0.60 in (1977)
Month to date precipitation 1.06 0.87  
Year to date precipitation 2.01 2.49  
Sea Level Pressure  
Sea Level Pressure 29.94 in    
Wind  
Wind Speed 9 mph (North)    
Max Wind Speed 15 mph    
Max Gust Speed 18 mph    
Visibility 4 miles    
Events Fog , Snow    
T = Trace of Precipitation, MM = Missing Value Source: NWS Daily Summary

Daily Weather History Graph

Daily Weather History Graph

Search for Another Location

Airport:

Trip Planner

Search our weather history database for the weather conditions in past years. The results will help you decide how hot, cold, wet, or windy it might be!

Date:

Astronomy

Apr. 15, 2013 Rise Set
Actual Time 6:12 AM MDT 7:32 PM MDT
Civil Twilight 5:43 AM MDT 8:00 PM MDT
Nautical Twilight 5:09 AM MDT 8:35 PM MDT
Astronomical Twilight 4:33 AM MDT 9:11 PM MDT
Moon 9:38 AM MDT (4/15) No Moon Set
Length of Visible Light 14h 17m
Length of Day
13h 19m
Waxing Crescent, 25% of the Moon is Illuminated
Apr 15
Waxing Crescent
Apr 18
First Quarter
Apr 25
Full
May 2
Last Quarter
May 9
New

Hourly Weather History & Observations

Time (MDT) Temp. Windchill Dew Point Humidity Pressure Visibility Wind Dir Wind Speed Gust Speed Precip Events Conditions
12:53 AM 30.0 °F 23.2 °F 23.0 °F 75% 29.81 in 10.0 mi NNW 6.9 mph - N/A   Scattered Clouds
1:53 AM 30.0 °F 21.7 °F 21.0 °F 69% 29.83 in 10.0 mi NNW 9.2 mph - N/A   Overcast
2:53 AM 28.9 °F 22.8 °F 21.0 °F 72% 29.83 in 10.0 mi NW 5.8 mph - N/A   Overcast
3:53 AM 28.9 °F 19.2 °F 21.0 °F 72% 29.84 in 10.0 mi NW 11.5 mph - N/A   Overcast
4:53 AM 28.0 °F 19.3 °F 19.0 °F 69% 29.83 in 10.0 mi NNW 9.2 mph - 0.00 in   Overcast
5:53 AM 27.0 °F 18.0 °F 19.9 °F 75% 29.86 in 10.0 mi NNW 9.2 mph - N/A   Overcast
6:34 AM 26.6 °F 18.2 °F 19.4 °F 74% 29.83 in 2.5 mi North 8.1 mph - 0.00 in Snow Light Snow
6:45 AM 26.6 °F 18.2 °F 19.4 °F 74% 29.84 in 1.2 mi North 8.1 mph - 0.00 in Snow Light Snow
6:53 AM 26.1 °F 17.6 °F 19.9 °F 78% 29.88 in 1.2 mi North 8.1 mph - 0.00 in Snow Light Snow
7:37 AM 24.8 °F 15.3 °F 21.2 °F 86% 29.86 in 2.0 mi North 9.2 mph - 0.00 in Snow Light Snow
7:46 AM 24.8 °F 13.4 °F 19.4 °F 80% 29.86 in 2.0 mi North 12.7 mph - 0.00 in Snow Light Snow
7:53 AM 24.1 °F 13.1 °F 19.9 °F 84% 29.95 in 2.0 mi North 11.5 mph - 0.00 in Snow Light Snow
8:09 AM 24.8 °F 14.6 °F 19.4 °F 80% 29.86 in 3.0 mi North 10.4 mph - 0.00 in Snow Light Snow
8:17 AM 24.8 °F 14.6 °F 19.4 °F 80% 29.86 in 2.0 mi North 10.4 mph - 0.00 in Snow Light Snow
8:24 AM 24.8 °F 14.6 °F 19.4 °F 80% 29.87 in 1.5 mi North 10.4 mph - 0.00 in Snow Light Snow
8:36 AM 23.0 °F 12.4 °F 19.4 °F 86% 29.87 in 1.0 mi North 10.4 mph - 0.00 in Snow Light Snow
8:53 AM 24.1 °F 13.1 °F 19.9 °F 84% 29.96 in 0.5 mi North 11.5 mph - 0.00 in Fog , Snow Snow
9:02 AM 23.0 °F 11.7 °F 19.4 °F 86% 29.88 in 0.2 mi NNW 11.5 mph - 0.00 in Fog , Snow Heavy Snow
9:11 AM 23.0 °F 13.9 °F 19.4 °F 86% 29.88 in 0.2 mi North 8.1 mph - 0.01 in Fog , Snow Snow
9:24 AM 24.8 °F 15.3 °F 19.4 °F 80% 29.87 in 1.0 mi North 9.2 mph - 0.01 in Snow Light Snow
9:29 AM 24.8 °F 15.3 °F 19.4 °F 80% 29.87 in 1.2 mi North 9.2 mph - 0.01 in Snow Light Snow
9:38 AM 24.8 °F 14.6 °F 21.2 °F 86% 29.88 in 1.5 mi North 10.4 mph - 0.01 in Snow Light Snow
9:53 AM 25.0 °F 13.1 °F 21.0 °F 85% 29.97 in 1.5 mi North 13.8 mph - 0.01 in Snow Light Snow
10:03 AM 26.6 °F 15.2 °F 21.2 °F 80% 29.88 in 2.0 mi North 13.8 mph - 0.00 in Snow Light Snow
10:16 AM 26.6 °F 15.7 °F 21.2 °F 80% 29.89 in 2.5 mi North 12.7 mph - 0.00 in Snow Light Snow
10:26 AM 26.6 °F 16.8 °F 21.2 °F 80% 29.88 in 4.0 mi North 10.4 mph - 0.00 in   Haze
10:53 AM 27.0 °F 17.3 °F 21.0 °F 78% 29.96 in 10.0 mi NNE 10.4 mph - 0.00 in   Overcast
11:20 AM 28.4 °F 20.4 °F 21.2 °F 74% 29.88 in 7.0 mi North 8.1 mph - N/A   Overcast
11:50 AM 28.4 °F 18.5 °F 21.2 °F 74% 29.87 in 9.0 mi NNE 11.5 mph - 0.00 in   Overcast
11:53 AM 28.9 °F 19.8 °F 21.9 °F 75% 29.95 in 10.0 mi NNE 10.4 mph - 0.00 in   Mostly Cloudy
12:53 PM 30.0 °F 21.1 °F 21.9 °F 72% 29.95 in 10.0 mi NNE 10.4 mph - N/A   Overcast
1:53 PM 32.0 °F 28.7 °F 21.9 °F 66% 29.97 in 10.0 mi Variable 3.5 mph - N/A   Overcast
2:16 PM 32.0 °F 26.4 °F 23.0 °F 69% 29.90 in 10.0 mi North 5.8 mph - N/A   Overcast
2:53 PM 30.9 °F 26.2 °F 23.0 °F 72% 29.98 in 5.0 mi North 4.6 mph - 0.00 in   Haze
3:14 PM 30.2 °F 22.6 °F 24.8 °F 80% 29.89 in 2.5 mi North 8.1 mph - 0.00 in Snow Light Snow
3:34 PM 30.2 °F 22.6 °F 26.6 °F 86% 29.90 in 1.8 mi NNW 8.1 mph - 0.00 in Snow Light Snow
3:45 PM 30.2 °F 22.6 °F 24.8 °F 80% 29.90 in 2.5 mi NNW 8.1 mph - 0.00 in Snow Light Snow
3:51 PM 30.2 °F 22.6 °F 26.6 °F 86% 29.90 in 3.0 mi North 8.1 mph - 0.00 in   Haze
3:53 PM 30.9 °F 23.5 °F 26.1 °F 82% 29.98 in 3.0 mi North 8.1 mph - 0.00 in   Haze
4:38 PM 30.2 °F 21.9 °F 24.8 °F 80% 29.90 in 5.0 mi North 9.2 mph - 0.00 in   Haze
4:53 PM 30.0 °F 21.7 °F 25.0 °F 82% 30.00 in 6.0 mi North 9.2 mph - 0.00 in   Haze
5:10 PM 30.2 °F 21.9 °F 24.8 °F 80% 29.91 in 8.0 mi North 9.2 mph - N/A   Overcast
5:53 PM 28.9 °F 17.7 °F 25.0 °F 85% 30.02 in 4.0 mi NNE 15.0 mph - 0.00 in Snow Light Snow
6:02 PM 28.4 °F 17.0 °F 24.8 °F 86% 29.93 in 4.0 mi NNE 15.0 mph - 0.00 in Snow Light Snow
6:22 PM 28.4 °F 18.5 °F 24.8 °F 86% 29.94 in 6.0 mi NNE 11.5 mph - 0.00 in   Haze
6:36 PM 28.4 °F 18.0 °F 24.8 °F 86% 29.94 in 1.8 mi NNE 12.7 mph - 0.00 in Snow Light Snow
6:45 PM 28.4 °F 18.0 °F 24.8 °F 86% 29.96 in 1.2 mi North 12.7 mph - 0.00 in Snow Light Snow
6:53 PM 28.0 °F 19.3 °F 24.1 °F 85% 30.06 in 1.2 mi NNE 9.2 mph - 0.00 in Snow Light Snow
7:00 PM 28.4 °F 19.7 °F 24.8 °F 86% 29.96 in 1.2 mi NNE 9.2 mph - 0.00 in Snow Light Snow
7:13 PM 28.4 °F 19.1 °F 24.8 °F 86% 29.96 in 2.5 mi NNE 10.4 mph - 0.00 in Snow Light Snow
7:23 PM 28.4 °F 18.5 °F 24.8 °F 86% 29.96 in 4.0 mi NNE 11.5 mph - 0.00 in Snow Light Snow
7:53 PM 28.0 °F 20.0 °F 25.0 °F 88% 30.09 in 2.0 mi NNE 8.1 mph - 0.00 in Snow Light Snow
8:25 PM 26.6 °F 16.8 °F 24.8 °F 93% 29.98 in 2.0 mi NNE 10.4 mph - 0.01 in Snow Light Snow
8:36 PM 26.6 °F 16.8 °F 24.8 °F 93% 29.98 in 2.5 mi NE 10.4 mph - 0.01 in Snow Light Snow
8:50 PM 26.6 °F 17.5 °F 24.8 °F 93% 30.01 in 3.0 mi NNE 9.2 mph - 0.01 in Snow Light Snow
8:53 PM 27.0 °F 18.0 °F 24.1 °F 89% 30.12 in 3.0 mi NNE 9.2 mph - 0.01 in Snow Light Snow
9:22 PM 28.4 °F 21.2 °F 24.8 °F 86% 30.00 in 2.5 mi NE 6.9 mph - 0.00 in Snow Light Snow
9:33 PM 26.6 °F 19.1 °F 24.8 °F 93% 30.01 in 1.2 mi ENE 6.9 mph - 0.00 in Snow Light Snow
9:42 PM 26.6 °F 19.1 °F 24.8 °F 93% 30.01 in 1.0 mi NE 6.9 mph - 0.00 in Snow Light Snow
9:51 PM 26.6 °F 20.0 °F 24.8 °F 93% 30.02 in 1.0 mi ENE 5.8 mph - 0.01 in Snow Light Snow
9:53 PM 27.0 °F 19.5 °F 24.1 °F 89% 30.13 in 1.0 mi ENE 6.9 mph - 0.01 in Snow Light Snow
10:41 PM 26.6 °F 21.2 °F 24.8 °F 93% 30.03 in 0.8 mi ENE 4.6 mph - 0.03 in Snow Light Snow
10:53 PM 27.0 °F 21.6 °F 25.0 °F 92% 30.14 in 0.8 mi NNE 4.6 mph - 0.04 in Snow Light Snow
11:01 PM 26.6 °F 21.2 °F 24.8 °F 93% 30.04 in 0.8 mi NNE 4.6 mph - 0.00 in Snow Light Snow
11:33 PM 26.6 °F 21.2 °F 24.8 °F 93% 30.04 in 1.0 mi NE 4.6 mph - 0.03 in Snow Light Snow
11:53 PM 27.0 °F 20.5 °F 25.0 °F 92% 30.14 in 1.0 mi NE 5.8 mph - 0.04 in Snow Light Snow